Retour au catalogue

NSS 703

INTELSAT 703

ActifCommunicationsGEO
NORAD 23305·PAYLOAD·🇱🇺 Luxembourg

Lancé Oct 6, 1994 depuis Cape Canaveral Space Force Station

Loading…

TLE

FraisSource: Space-Track

Époque: Sep 14, 2026, 11:58 UTC

1 23305U 94064A   26257.49865723  .00000028  00000-0  00000-0 0  9992
2 23305  11.8814  36.0778 0006569 245.0012 141.0910  0.99300987116626

Suivez NSS 703 en temps réel avec AllMySat

Download on the App Store